Weather History for Pinedale, WY

Change the Weather History Date:

Wednesday, January 9, 2013

  Actual Average (KBPI) Record (KBPI)
Temperature  
Mean Temperature 16 °F 11 °F  
Max Temperature 30 °F 26 °F 40 °F (1996)
Min Temperature 3 °F -4 °F -27 °F (1989)
Degree Days  
Heating Degree Days 48 54  
Month to date heating degree days 486  
Since 1 July heating degree days 4925  
Cooling Degree Days 0 0  
Month to date cooling degree days 0  
Year to date cooling degree days 0  
Moisture  
Dew Point 11 °F    
Average Humidity 88    
Maximum Humidity 100    
Minimum Humidity 64    
Precipitation  
Precipitation 0.00 in 0.01 in 0.13 in (2005)
Month to date precipitation 0.09  
Year to date precipitation 0.09  
Sea Level Pressure  
Sea Level Pressure 30.19 in    
Wind  
Wind Speed 3 mph (NW)    
Max Wind Speed 9 mph    
Max Gust Speed -    
Visibility 9 miles    
Events Fog    
T = Trace of Precipitation, MM = Missing Value Source: NWS Daily Summary

Daily Weather History Graph

Daily Weather History Graph

Search for Another Location

Airport:

Trip Planner

Search our weather history database for the weather conditions in past years. The results will help you decide how hot, cold, wet, or windy it might be!

Date:

Astronomy

Jan. 09, 2013 Rise Set
Actual Time 7:49 AM MST 5:04 PM MST
Civil Twilight 7:17 AM MST 5:35 PM MST
Nautical Twilight 6:42 AM MST 6:11 PM MST
Astronomical Twilight 6:08 AM MST 6:45 PM MST
Moon 5:32 AM MST (1/9) 3:09 PM MST (1/9)
Length of Visible Light 10h 18m
Length of Day
9h 15m
Waning Crescent, 6% of the Moon is Illuminated
Jan 9
Waning Crescent
Jan 11
New
Jan 18
First Quarter
Jan 26
Full
Feb 3
Last Quarter

Hourly Weather History & Observations

Time (MST) Temp. Windchill Dew Point Humidity Pressure Visibility Wind Dir Wind Speed Gust Speed Precip Events Conditions
12:15 AM 14.0 °F 8.2 °F 12.2 °F 93% 30.33 in 10.0 mi WNW 3.5 mph - N/A   Overcast
12:35 AM 14.0 °F 5.1 °F 14.0 °F 100% 30.33 in 10.0 mi WNW 5.8 mph - N/A   Overcast
12:55 AM 14.0 °F 6.5 °F 14.0 °F 100% 30.34 in 10.0 mi West 4.6 mph - N/A   Overcast
1:15 AM 17.6 °F 10.7 °F 15.8 °F 93% 30.34 in 10.0 mi NW 4.6 mph - N/A   Overcast
1:35 AM 17.6 °F - 15.8 °F 93% 30.34 in 10.0 mi Calm Calm - N/A   Overcast
1:55 AM 17.6 °F - 15.8 °F 93% 30.34 in 10.0 mi Calm Calm - N/A   Overcast
2:15 AM 17.6 °F - 15.8 °F 93% 30.34 in 10.0 mi Calm Calm - N/A   Mostly Cloudy
2:35 AM 14.0 °F - 12.2 °F 93% 30.35 in 10.0 mi Calm Calm - N/A   Scattered Clouds
2:55 AM 14.0 °F - 12.2 °F 93% 30.35 in 10.0 mi Calm Calm - N/A   Scattered Clouds
3:15 AM 10.4 °F 4.0 °F 8.6 °F 92% 30.35 in 10.0 mi East 3.5 mph - N/A   Mostly Cloudy
3:35 AM 10.4 °F - 8.6 °F 92% 30.34 in 10.0 mi Calm Calm - N/A   Mostly Cloudy
3:55 AM 8.6 °F - 8.6 °F 100% 30.34 in 10.0 mi Calm Calm - N/A   Scattered Clouds
4:15 AM 10.4 °F - 10.4 °F 100% 30.34 in 10.0 mi Calm Calm - N/A   Clear
4:35 AM 10.4 °F 2.2 °F 8.6 °F 92% 30.33 in 10.0 mi North 4.6 mph - N/A   Clear
4:55 AM 6.8 °F - 5.0 °F 92% 30.32 in 10.0 mi Calm Calm - N/A   Clear
5:15 AM 10.4 °F - 8.6 °F 92% 30.32 in 7.0 mi Calm Calm - N/A   Scattered Clouds
5:35 AM 5.0 °F -2.1 °F 5.0 °F 100% 30.32 in 10.0 mi North 3.5 mph - N/A   Mostly Cloudy
5:55 AM 5.0 °F - 3.2 °F 92% 30.32 in 10.0 mi Calm Calm - N/A   Scattered Clouds
6:15 AM 3.2 °F -6.2 °F 1.4 °F 92% 30.32 in 10.0 mi West 4.6 mph - N/A   Mostly Cloudy
6:35 AM 3.2 °F -6.2 °F 1.4 °F 92% 30.31 in 10.0 mi West 4.6 mph - N/A   Overcast
6:55 AM 3.2 °F -6.2 °F 1.4 °F 92% 30.30 in 0.2 mi West 4.6 mph - N/A Fog Light Freezing Fog
7:15 AM 3.2 °F -6.2 °F 1.4 °F 92% 30.29 in 0.5 mi West 4.6 mph - N/A Fog Light Freezing Fog
7:35 AM 3.2 °F -6.2 °F 1.4 °F 92% 30.29 in 3.0 mi NW 4.6 mph - N/A   Overcast
7:55 AM - - - N/A% 30.31 in 0.2 mi Calm Calm - N/A Fog Fog
8:15 AM - - - N/A% 30.30 in 1.0 mi NW 4.6 mph - N/A   Overcast
8:35 AM - - - N/A% 30.31 in 2.5 mi Calm Calm - N/A   Overcast
8:55 AM - - - N/A% 30.30 in 5.0 mi Calm Calm - N/A   Haze
9:15 AM - - - N/A% 30.30 in 4.0 mi Calm Calm - N/A   Unknown
9:35 AM - - - N/A% 30.29 in 10.0 mi West 3.5 mph - N/A   Clear
10:15 AM - - - N/A% 30.27 in 10.0 mi WNW 3.5 mph - N/A   Clear
10:35 AM - - - N/A% 30.27 in 10.0 mi Calm Calm - N/A   Clear
10:55 AM - - - N/A% 30.26 in 10.0 mi Calm Calm - N/A   Clear
11:15 AM 19.4 °F 14.3 °F 17.6 °F 93% 30.25 in 10.0 mi East 3.5 mph - N/A   Clear
11:35 AM 21.2 °F - 17.6 °F 86% 30.24 in 10.0 mi Calm Calm - N/A   Scattered Clouds
11:55 AM 23.0 °F - 17.6 °F 80% 30.22 in 10.0 mi Calm Calm - N/A   Mostly Cloudy
12:15 PM 23.0 °F - 17.6 °F 80% 30.21 in 10.0 mi Calm Calm - N/A   Mostly Cloudy
12:35 PM 28.4 °F - 17.6 °F 64% 30.19 in 10.0 mi Calm Calm - N/A   Scattered Clouds
12:55 PM 28.4 °F 24.6 °F 19.4 °F 69% 30.19 in 10.0 mi SSE 3.5 mph - N/A   Clear
1:15 PM 26.6 °F 17.5 °F 19.4 °F 74% 30.18 in 10.0 mi East 9.2 mph - N/A   Clear
1:35 PM 26.6 °F 20.0 °F 19.4 °F 74% 30.17 in 10.0 mi East 5.8 mph - N/A   Clear
1:55 PM 26.6 °F 22.6 °F 19.4 °F 74% 30.17 in 10.0 mi East 3.5 mph - N/A   Clear
2:15 PM 28.4 °F 24.6 °F 21.2 °F 74% 30.17 in 10.0 mi East 3.5 mph - N/A   Clear
2:35 PM 30.2 °F - 21.2 °F 69% 30.16 in 10.0 mi Calm Calm - N/A   Scattered Clouds
2:55 PM 30.2 °F - 19.4 °F 64% 30.16 in 10.0 mi Calm Calm - N/A   Scattered Clouds
3:15 PM 30.2 °F - 19.4 °F 64% 30.14 in 10.0 mi Calm Calm - N/A   Scattered Clouds
3:35 PM 28.4 °F - 19.4 °F 69% 30.13 in 10.0 mi Calm Calm - N/A   Clear
3:55 PM 26.6 °F 22.6 °F 21.2 °F 80% 30.13 in 10.0 mi South 3.5 mph - N/A   Clear
4:15 PM 24.8 °F - 19.4 °F 80% 30.13 in 10.0 mi Calm Calm - N/A   Clear
4:35 PM 24.8 °F - 19.4 °F 80% 30.13 in 10.0 mi Calm Calm - N/A   Clear
4:55 PM 23.0 °F 15.8 °F 17.6 °F 80% 30.11 in 10.0 mi NNE 5.8 mph - N/A   Clear
5:15 PM 21.2 °F 13.6 °F 17.6 °F 86% 30.10 in 10.0 mi North 5.8 mph - N/A   Clear
5:35 PM 19.4 °F 12.8 °F 17.6 °F 93% 30.09 in 10.0 mi West 4.6 mph - N/A   Clear
6:15 PM 19.4 °F 14.3 °F 17.6 °F 93% 30.06 in 10.0 mi SSW 3.5 mph - N/A   Clear
6:35 PM 14.0 °F 8.2 °F 14.0 °F 100% 30.05 in 10.0 mi ENE 3.5 mph - N/A   Clear
6:55 PM 15.8 °F 7.2 °F 14.0 °F 93% 30.05 in 10.0 mi ENE 5.8 mph - N/A   Scattered Clouds
7:15 PM 12.2 °F 6.1 °F 12.2 °F 100% 30.05 in 10.0 mi East 3.5 mph - N/A   Scattered Clouds
7:35 PM 12.2 °F - 12.2 °F 100% 30.03 in 10.0 mi Calm Calm - N/A   Clear
7:55 PM 5.0 °F -4.1 °F 3.2 °F 92% 30.03 in 10.0 mi WNW 4.6 mph - N/A   Clear
8:15 PM 8.6 °F 2.0 °F 6.8 °F 92% 30.01 in 10.0 mi WNW 3.5 mph - N/A   Clear
8:35 PM 3.2 °F -6.2 °F 1.4 °F 92% 30.01 in 10.0 mi WNW 4.6 mph - N/A   Clear
8:55 PM 5.0 °F -6.9 °F 3.2 °F 92% 30.00 in 10.0 mi NW 6.9 mph - N/A   Clear
9:15 PM 5.0 °F -4.1 °F 3.2 °F 92% 29.99 in 10.0 mi NW 4.6 mph - N/A   Clear
9:35 PM 5.0 °F -6.9 °F 3.2 °F 92% 29.99 in 10.0 mi WNW 6.9 mph - N/A   Clear
9:55 PM 5.0 °F -6.9 °F 3.2 °F 92% 29.99 in 10.0 mi NW 6.9 mph - N/A   Clear
10:15 PM 5.0 °F -4.1 °F 3.2 °F 92% 29.98 in 10.0 mi WNW 4.6 mph - N/A   Clear
10:35 PM 5.0 °F - 5.0 °F 100% 29.97 in 10.0 mi Calm Calm - N/A   Clear
10:55 PM 6.8 °F -0.1 °F 5.0 °F 92% 29.97 in 10.0 mi West 3.5 mph - N/A   Clear
11:15 PM 5.0 °F -6.9 °F 3.2 °F 92% 29.95 in 10.0 mi West 6.9 mph - N/A   Clear
11:35 PM 5.0 °F -5.6 °F 3.2 °F 92% 29.93 in 10.0 mi WNW 5.8 mph - N/A   Clear
11:55 PM 6.8 °F -3.5 °F 5.0 °F 92% 29.92 in 10.0 mi NW 5.8 mph - N/A   Clear